DW0268 Weather Reports


time (UTC)temp
C
wind
direction
speed
KPH
gust
KPH
rain 1hr
cm
rain 24hr
cm
rain mn
cm
humidity
%
barometer
mb
20260906040037 28 344 0.0 0.0 0.00 0.00 0.00 80 1014.4
20260906034536 28 344 0.0 3.2 0.00 0.00 0.00 80 1014.6
20260906033036 28 344 0.0 3.2 0.00 0.00 0.00 79 1014.6
20260906031530 29 344 0.0 0.0 0.00 0.00 0.00 77 1014.5
20260906030030 29 344 0.0 1.6 0.00 0.00 0.00 75 1014.4
20260906024529 29 344 1.6 3.2 0.00 0.00 0.00 75 1014.4
20260906023028 29 344 0.0 6.4 0.00 0.00 0.00 76 1014.3
20260906021536 31 150 0.0 1.6 0.00 0.00 0.00 71 1014.1
20260906020022 30 150 1.6 4.8 0.00 0.00 0.00 73 1013.7
20260906014521 30 221 0.0 0.0 0.00 0.00 0.00 74 1013.6
20260906013032 31 221 1.6 9.7 0.00 0.00 0.00 72 1013.5
20260906011513 32 119 3.2 4.8 0.00 0.00 0.00 68 1013.2
20260906010013 32 119 1.6 3.2 0.00 0.00 0.00 66 1013.1
20260906004508 33 119 3.2 6.4 0.00 0.00 0.00 63 1013.2
20260906003010 33 113 3.2 6.4 0.00 0.00 0.00 61 1013.0
20260906001600 35 112 0.0 0.0 0.00 0.00 0.00 59 1013.2
20260906000056 35 112 0.0 3.2 0.00 0.00 0.00 56 1013.1
20260905234551 36 111 1.6 3.2 0.00 0.00 0.00 54 1013.2
20260905233048 36 111 0.0 4.8 0.00 0.00 0.00 51 1013.4
20260905231546 37 111 0.0 4.8 0.00 0.00 0.00 50 1013.5
20260905230041 37 109 3.2 6.4 0.00 0.00 0.00 49 1013.5
20260905224537 -17 0.0 0.0 0.00 0.00 0.00 1013.4
20260905221556 37 132 4.8 8.0 0.00 0.00 0.00 49 1013.3
20260905220054 36 91 1.6 12.9 0.00 0.00 0.00 51 1013.3
20260905214551 36 91 0.0 12.9 0.00 0.00 0.00 52 1013.4
20260905213050 37 79 8.0 16.1 0.00 0.00 0.00 49 1013.5
20260905211548 37 80 4.8 16.1 0.00 0.00 0.00 50 1013.4
20260905210046 37 84 8.0 22.5 0.00 0.00 0.00 50 1013.5
20260905204540 38 169 3.2 12.9 0.00 0.00 0.00 49 1013.6
20260905203037 37 155 3.2 8.0 0.00 0.00 0.00 50 1013.7
20260905201535 37 113 4.8 9.7 0.00 0.00 0.00 50 1014.0
20260905200035 37 161 3.2 12.9 0.00 0.00 0.00 51 1014.3
20260905194528 36 110 4.8 12.9 0.00 0.00 0.00 53 1014.5
20260905193029 36 104 6.4 11.3 0.00 0.00 0.00 52 1014.7
20260905191530 37 44 3.2 6.4 0.00 0.00 0.00 52 1015.0
20260905190031 37 223 3.2 8.0 0.00 0.00 0.00 51 1015.2
20260905184525 36 278 3.2 6.4 0.00 0.00 0.00 52 1015.4
20260905183018 36 55 4.8 8.0 0.00 0.00 0.00 53 1015.5
20260905181515 36 245 6.4 16.1 0.00 0.00 0.00 54 1015.6
20260905180015 36 259 4.8 14.5 0.00 0.00 0.00 54 1015.6
20260905174509 36 275 4.8 19.3 0.00 0.00 0.00 54 1015.6
20260905173008 35 271 11.3 16.1 0.00 0.00 0.00 56 1015.7
20260905171505 35 321 6.4 16.1 0.00 0.00 0.00 58 1016.0
20260905170002 35 82 3.2 9.7 0.00 0.00 0.00 59 1016.2
20260905164601 35 296 3.2 12.9 0.00 0.00 0.00 61 1016.4
20260905163057 34 36 3.2 12.9 0.00 0.00 0.00 65 1016.5
20260905161553 33 326 8.0 12.9 0.00 0.00 0.00 64 1016.5
20260905160055 33 286 8.0 12.9 0.00 0.00 0.00 65 1016.5
20260905154548 33 266 6.4 11.3 0.00 0.00 0.00 68 1016.5
20260905153059 33 262 4.8 9.7 0.00 0.00 0.00 69 1016.5
20260905151537 32 315 1.6 8.0 0.00 0.00 0.00 72 1016.7
20260905150034 31 290 3.2 9.7 0.00 0.00 0.00 72 1016.7
20260905144530 31 311 3.2 9.7 0.00 0.00 0.00 73 1016.7
20260905143029 31 340 1.6 6.4 0.00 0.00 0.00 75 1016.7
20260905141526 30 330 4.8 8.0 0.00 0.00 0.00 76 1016.8
20260905140021 30 338 1.6 6.4 0.00 0.00 0.00 79 1016.5
20260905134516 28 344 3.2 6.4 0.00 0.00 0.00 81 1016.6
20260905133013 27 355 1.6 4.8 0.00 0.00 0.00 85 1016.3
20260905131511 26 355 1.6 4.8 0.00 0.00 0.00 88 1016.2
20260905130009 25 348 0.0 4.8 0.00 0.00 0.00 91 1016.2
20260905124517 25 346 4.8 6.4 0.00 0.00 0.00 92 1016.0
20260905123003 24 151 1.6 3.2 0.00 0.00 0.00 93 1016.2
20260905121502 23 258 0.0 4.8 0.00 0.00 0.00 93 1016.0
20260905120001 23 247 3.2 4.8 0.00 0.00 0.00 93 1015.7
20260905114600 23 246 1.6 3.2 0.00 0.00 0.00 93 1015.7
20260905113059 23 246 1.6 3.2 0.00 0.00 0.00 92 1015.5
20260905111557 23 246 1.6 4.8 0.00 0.00 0.00 92 1015.5
20260905110059 23 213 0.0 3.2 0.00 0.00 0.00 92 1015.5
20260905104557 23 213 0.0 0.0 0.00 0.00 0.00 92 1015.4
20260905103056 24 213 0.0 0.0 0.00 0.00 0.00 91 1015.5
20260905101553 24 213 0.0 0.0 0.00 0.00 0.00 91 1015.5
20260905100113 24 213 0.0 0.0 0.00 0.00 0.00 91 1015.4
20260905094550 24 213 0.0 1.6 0.00 0.00 0.00 90 1015.3
20260905093049 24 205 3.2 4.8 0.00 0.00 0.00 89 1015.4
20260905091545 25 205 0.0 1.6 0.00 0.00 0.00 87 1015.3
20260905090103 25 206 0.0 1.6 0.00 0.00 0.00 86 1015.3
20260905084542 25 205 0.0 1.6 0.00 0.00 0.00 87 1015.1
20260905083047 25 205 0.0 3.2 0.00 0.00 0.00 86 1015.2
20260905081547 25 207 0.0 1.6 0.00 0.00 0.00 86 1015.4
20260905080046 25 207 0.0 0.0 0.00 0.00 0.00 85 1015.3
20260905074538 25 207 0.0 1.6 0.00 0.00 0.00 85 1015.3
20260905073038 26 207 0.0 4.8 0.00 0.00 0.00 83 1015.3
20260905071533 26 207 0.0 1.6 0.00 0.00 0.00 83 1015.4
20260905070032 26 207 0.0 0.0 0.00 0.00 0.00 82 1015.5
20260905064528 27 207 0.0 1.6 0.00 0.00 0.00 83 1015.5
20260905063028 27 207 0.0 3.2 0.00 0.00 0.00 81 1015.6
20260905061526 27 207 0.0 0.0 0.00 0.00 0.00 82 1015.7
20260905060032 27 207 0.0 0.0 0.00 0.00 0.00 81 1015.6
20260905054533 27 207 0.0 1.6 0.00 0.00 0.00 81 1015.7
20260905053021 27 207 0.0 3.2 0.00 0.00 0.00 80 1015.7
20260905051526 28 207 0.0 4.8 0.00 0.00 0.00 79 1015.8
20260905050017 28 207 0.0 1.6 0.00 0.00 0.00 77 1015.7
20260905044514 28 207 0.0 3.2 0.00 0.00 0.00 76 1015.8
20260905043013 28 207 0.0 4.8 0.00 0.00 0.00 76 1015.8
20260905041513 28 207 0.0 1.6 0.00 0.00 0.00 77 1015.8